Location: Holcomb Observatory
(44.4922°N, 73.1654°W)
Time: 15:14:27
(UTC-04:00)

Daily predictions for brighter satellites

Satellite Brightness Start Highest point End
(mag) Time Altitude Azimuth Time Altitude Azimuth Time Altitude Azimuth
ATLAS 2AS CENTAUR R/B 3.6 21:06:23 10° S 21:13:11 34° ESE 21:20:15 10° NE
Meteor 2-5 Rocket 4.0 21:12:36 10° S 21:18:25 59° E 21:24:13 10° NNE
SPOT 5 4.2 21:20:40 10° ESE 21:25:00 30° ENE 21:29:30 10° N
Cosmos 972 4.4 21:23:12 10° SSW 21:28:09 86° WNW 21:33:05 10° NNE
Lacrosse 5 2.1 21:26:11 10° SSW 21:31:00 47° SE 21:35:51 10° ENE
ERS-1 Rocket 3.4 21:27:11 10° SE 21:32:01 49° ENE 21:36:53 10° N
Cosmos 1238 Rocket 2.7 21:29:50 10° SSE 21:32:37 38° E 21:35:26 10° NNE
Iridium 4 Rocket 3.7 21:28:43 10° S 21:34:25 80° E 21:39:43 10° N
Cosmos 1908 4.3 21:33:31 10° NNE 21:36:58 30° ENE 21:40:02 12° SE
Cosmos-2242 3.4 21:33:38 10° N 21:37:55 49° ENE 21:42:03 11° SSE
Cosmos 2263 Rocket 3.3 21:32:34 10° SW 21:38:05 50° WNW 21:43:36 10° NNE
Cosmos 1048 Rocket 4.0 21:34:13 10° S 21:39:29 73° ESE 21:44:52 10° NNE
OE (NEXTSAT) 4.4 21:38:00 10° WNW 21:41:33 74° SSW 21:44:47 12° ESE
USA 215 4.4 21:38:45 10° S 21:44:35 34° SW 21:50:26 10° WNW
Cosmos 2084 3.3 21:43:46 10° NNW 21:47:37 66° NE 21:50:47 14° SE
GENESIS II 4.2 21:44:33 10° SSW 21:48:23 61° ESE 21:52:17 10° NE
SL-8 R/B 4.3 21:47:00 10° SSW 21:51:22 35° SE 21:55:44 10° ENE
OAO 3 Rocket 4.3 21:47:24 10° SW 21:51:30 26° S 21:54:44 14° SE
CZ-2C R/B 4.5 21:49:19 10° ENE 21:52:01 14° E 21:54:19 11° ESE
Cosmos 1953 Rocket 3.5 21:51:17 10° S 21:55:37 88° W 22:00:02 10° N
Resurs 01 Rocket 4.0 21:52:47 10° SW 21:56:00 20° W 21:59:15 10° NW
In-Cosmos 22 4.2 21:50:51 10° S 21:56:23 89° WNW 22:02:05 10° N
Cosmos 1315 Rocket 3.2 21:54:02 10° SSW 21:58:03 68° WNW 22:02:09 10° N
Cosmos 1340 3.7 21:55:21 10° N 21:58:45 31° ENE 22:01:04 17° SE
Cosmos 1758 Rocket 4.0 21:56:53 10° SSW 22:01:17 63° W 22:05:42 10° N
Helios 1A 3.3 21:59:46 16° SE 22:02:56 55° ENE 22:07:04 10° N
SL-08 RB Rocket 4.3 22:04:00 10° S 22:08:35 56° W 22:13:12 10° NNW
Cosmos 1300 4.2 22:07:02 10° NNE 22:10:09 23° ENE 22:12:00 17° ESE
Cosmos 1674 2.6 22:08:26 13° S 22:11:46 71° E 22:15:36 10° NNE
Landsat 7 4.0 22:11:38 18° SSE 22:15:05 62° ENE 22:19:48 10° N
Helios 1B rocket 3.0 22:11:48 10° NNE 22:15:41 40° E 22:18:01 20° SSE
Timation 1 Rocket 4.3 22:10:13 10° SSW 22:16:06 67° ESE 22:22:02 10° NNE
Cosmos 1437 3.6 22:13:11 10° NNW 22:16:13 43° W 22:18:41 14° SSW
SPOT 1/Viking Rocket 3.5 22:12:49 17° SSE 22:16:51 79° ENE 22:22:00 10° NNW
H-2A R/B 2.8 22:12:14 10° S 22:17:19 50° W 22:22:35 10° NNW
Cosmos 1110 Rocket 3.9 22:13:39 10° NNW 22:18:51 87° ENE 22:22:33 19° SSE
APEX 4.0 22:19:02 10° N 22:21:47 31° ENE 22:23:24 20° ESE
Cosmos 1745 Rocket 4.1 22:16:42 10° N 22:23:00 64° E 22:27:33 19° SSE
Cosmos 2278 Rocket 3.0 22:23:34 20° SSE 22:26:30 31° ESE 22:31:27 10° NE
Cosmos 2221 3.5 22:23:18 10° N 22:27:13 32° ENE 22:29:15 21° ESE
SL-08 R/B 4.5 22:24:57 10° N 22:31:07 90° WSW 22:35:54 18° S
DMSP B5D2-2 4.2 22:26:49 10° N 22:32:05 77° WNW 22:37:17 10° SSW
COSMOS 2406 3.2 22:27:54 10° NNW 22:33:43 89° ENE 22:37:28 23° SSE
Cosmos 921 Rocket 3.5 22:29:46 10° NNW 22:34:10 59° WSW 22:37:08 20° S
Cosmos 1331 Rocket 4.0 22:29:02 10° NNW 22:34:15 78° WSW 22:37:39 22° SSE
Terra 2.0 22:31:36 23° SSE 22:34:27 63° ENE 22:39:10 10° N
Cosmos 1726 2.2 22:31:04 10° NNW 22:34:49 78° W 22:36:55 25° S
USA 238 DEB 3.8 22:27:54 10° NW 22:35:03 84° WSW 22:40:07 22° SSE
USA 238 3.8 22:28:00 10° NW 22:35:10 84° SW 22:40:13 22° SSE
Cosmos 1346 Rocket 4.1 22:32:48 10° NNW 22:36:27 35° W 22:39:41 13° SSW
Meteor 2-10 4.1 22:31:22 10° N 22:36:47 90° WSW 22:40:33 21° S
SL-14 R/B 3.7 22:35:37 29° SSE 22:37:10 44° E 22:40:55 10° NNE
ATLAS 3B R/B 2.6 22:31:56 10° NW 22:38:38 81° NE 22:43:03 22° SE
Spot 1 4.1 22:38:44 27° SSE 22:41:05 74° ENE 22:45:38 10° N
Cosmos 494 Rocket 4.1 22:39:07 10° SSW 22:44:22 77° WNW 22:49:40 10° NNE
Cosmos 1844 3.8 22:41:54 10° SSW 22:47:35 79° WNW 22:53:24 10° NNE
NOSS 3-2 (A) 4.1 22:41:09 10° NW 22:48:41 82° NE 22:54:22 22° SE
Meteor 2-13 Rocket 4.4 22:43:04 10° N 22:49:10 89° E 22:53:08 23° S
S3M 4.1 22:45:02 13° SSW 22:50:50 80° W 22:57:16 10° N
Cosmos 1844 Rocket 3.3 22:45:31 10° SW 22:51:05 58° WNW 22:56:41 10° NNE
CARTOSAT-1 3.7 22:53:06 27° S 22:55:21 69° WSW 22:59:42 10° NNW
Cosmos 1709 Rocket 4.2 22:50:29 10° N 22:56:39 58° ENE 23:00:00 27° SSE
CZ-2C R/B 3.3 22:53:48 26° SSE 22:57:18 86° ENE 23:03:07 10° NNW
Cosmos 1302 Rocket 4.0 22:55:25 10° NNW 23:00:45 82° WSW 23:03:25 30° SSE
SPOT 5 4.1 22:59:19 16° SSW 23:02:53 39° W 23:07:47 10° NNW
Cosmos 2251 Rocket 3.5 22:59:38 20° SSW 23:03:28 82° ESE 23:08:49 10° NNE
ATLAS 2AS CENTAUR R/B 3.5 22:55:56 10° SW 23:03:47 66° NW 23:11:55 10° NE
Cosmos 1461 3.4 23:03:09 33° S 23:04:51 49° ESE 23:09:27 10° NE
YAOGAN 11 4.1 23:03:10 33° SSE 23:05:13 89° WSW 23:09:49 10° NNW
Cosmos 220 Rocket 4.0 23:04:00 21° SSW 23:06:48 76° WNW 23:11:02 10° NNE
RESURS DK-1 4.1 23:12:25 19° E 23:12:25 19° E 23:14:50 10° ENE
NOSS 3-2 (C) 4.0 23:04:57 10° NW 23:12:31 84° NE 23:17:42 26° SE
Cosmos 2082 Rocket 2.9 23:07:16 10° NNW 23:12:44 44° ENE 23:15:51 23° ESE
ATLAS 5 CENTAUR R/B 2.3 23:13:17 34° SE 23:13:36 34° ESE 23:17:59 10° NE
IGS 5A 4.4 23:12:05 25° SSW 23:14:01 40° W 23:17:57 10° NNW
Lacrosse 5 3.2 23:09:17 10° W 23:14:04 41° NNW 23:18:52 10° NE
Cosmos 1766 Rocket 4.4 23:17:39 32° ESE 23:18:31 35° E 23:22:35 10° NNE
Cosmos 1833 Rocket 3.1 23:14:34 10° NNW 23:20:06 55° ENE 23:22:51 29° SE
Cosmos 1992 Rocket 4.4 23:15:24 10° NNW 23:20:31 54° ENE 23:22:44 31° SE
Meteor 1-29 4.2 23:19:24 10° N 23:22:36 38° WNW 23:24:13 23° SW
Cosmos 1076 Rocket 3.4 23:21:29 44° S 23:22:46 76° E 23:27:01 10° NNE
Cosmos 2315 Rocket 4.0 23:24:28 29° S 23:27:58 85° E 23:34:22 10° N
SL-08 ROCKET BODY 4.4 23:26:13 10° N 23:32:27 88° E 23:35:21 34° S
CZ-2C R/B 2.7 23:27:30 10° NNE 23:33:00 82° WNW 23:35:50 29° SSW
SL-8 R/B 3.8 23:28:51 10° WSW 23:33:41 77° NNW 23:38:32 10° ENE
H-2A R/B 3.9 23:33:27 16° E 23:34:52 19° ENE 23:37:46 10° NNE
Aureole 3 Rocket 4.2 23:30:26 26° S 23:35:16 85° E 23:41:09 10° N
Cosmos 1626 2.3 23:35:20 48° SW 23:36:11 68° W 23:39:55 10° N
Meteor 2-19 Rocket 4.4 23:30:41 10° N 23:36:52 84° E 23:39:37 35° SSE
Mayak -0.2 23:36:32 10° NNE 23:40:13 30° E 23:40:22 30° E
NOSS 2-2 (E) 3.2 23:39:41 56° S 23:40:23 71° ESE 23:44:50 10° NE
NOSS 3-4 (A) 3.4 23:35:38 16° SW 23:40:40 87° SE 23:47:10 10° NE
NOSS 3-4 (C) 3.4 23:35:49 17° SSW 23:40:45 87° SE 23:47:15 10° NE
Cosmos 1328 4.0 23:41:24 45° SW 23:42:25 66° W 23:46:23 10° N
Okean 3 Rocket 3.6 23:42:55 42° SSW 23:44:18 74° W 23:48:42 10° N
Cosmos 2184 Rocket 4.3 23:39:08 10° N 23:45:23 57° ENE 23:48:03 33° SE
Cosmos 1455 2.2 23:42:00 10° N 23:45:45 65° E 23:46:06 60° ESE
Cosmos 1300 4.4 23:42:38 10° NW 23:45:47 25° W 23:46:59 21° WSW
Meteor 1-11 4.2 23:45:43 38° S 23:48:02 78° E 23:53:51 10° NNE
Cosmos 407 Rocket 4.4 23:48:04 30° ESE 23:48:42 31° E 23:53:13 10° NE
CENTAUR R/B 3.2 23:40:51 10° NW 23:48:47 75° NE 23:54:13 25° SE
ADEOS Rocket 3.5 23:45:49 10° NNE 23:51:27 44° E 23:53:31 34° SE
Cosmos 2228 Rocket 4.1 23:48:15 10° N 23:52:22 34° ENE 23:53:23 30° ESE
Cosmos 2151 3.7 23:52:47 38° ESE 23:53:10 38° E 23:57:07 10° NNE
